User: anonymous   Login
Location: Caltech
(34.1382°N, 118.1253°W)
Time: 22:09:33
(UTC-07:00)
Language:

SPOT 1/Viking Rocket - Orbit

View from above orbital plane
View from above orbital plane
View from above satellite
View from above satellite

Ground track
Ground track

The orbit data is extracted from the following two-line orbital elements,

1 16615U 86019C   15143.27104337  .00000153  00000-0  74310-4 0  9992
2 16615 098.7094 201.3384 0013013 107.1407 302.4052 14.31479246531340
Epoch (UTC): 23 May 2015 06:30:18
Eccentricity: 0.0013013
inclination: 98.7094°
perigee height: 777 km
apogee height: 796 km
right ascension of ascending node: 201.3384°
argument of perigee: 107.1407°
revolutions per day: 14.31479246
mean anomaly at epoch: 302.4052°
orbit number at epoch: 53134

The dashed part of the orbit path shows where the satellite is in the earth's shadow,  

DLR